Даурское

Россия / Красноярский край     55°13′29″N   91°58′04″E
темп.,
°C
ветер,
м/с
пор.,
м/с
влажн.,
%
обл.,
%
осадки,
мм/ч
давл.,
гПа
погр.,
м
19 июня, сб
сб1901:00+12вюв119899 2.4 100411
04:00+12з009746 0.0 100410
07:00+13в11979 0.0 100457
10:00+16св1189100 0.0 1003146
13:00+18св118169 0.0 1002245
16:00+18всв228064 0.0 1002251
19:00+19всв227824 0.0 99927
22:00+15зюз47916 0.2 100175
20 июня, вс
вс2001:00+13с1195100 0.2 100011
04:00+13вюв1196100 0.0 100010
07:00+14зсз129551 0.0 100171
10:00+17з5688100 0.1 1002326
13:00+16з569393 0.2 1003272
16:00+15сз589299 0.1 1004319
19:00+13зсз359181 0.2 1006238
22:00+12зсз5889100 0.4 1008295
21 июня, пн
пн2101:00+10зсз3795100 7.9 1009271
04:00+9зсз51092100 2.9 1010412
07:00+8з4795100 6.9 1012403
10:00+8зюз4796100 3.8 1013347
13:00+9юз4589100 5.9 1013333
16:00+11юз137913 0.1 1012423
19:00+12в33750 0.1 1012160
22:00+9вюв22820 0.0 101211
22 июня, вт
вт2201:00+8всв11889 0.0 101110
04:00+7св229011 0.0 101038
07:00+9св3581100 0.0 1008138
10:00+13всв5866100 0.0 1006341
13:00+15св1269100 0.0 1006213
16:00+15зюз577699 0.0 1008276
19:00+12зюз6984100 0.1 1011182
22:00+11ююз3292100 0.7 101220
23 июня, ср
ср2301:00+10ю1191100 0.7 101210
04:00+9ююз1190100 0.0 101311
07:00+10юз2289100 0.0 101450
10:00+12з347938 0.0 1014444
13:00+13юз337198 0.1 1014534
16:00+14юз23705 0.3 1014474
19:00+14юз00735 0.5 1013201
22:00+11в11841 0.1 101311